Find Starlink 34868

NORAD ID: 65648 Int'l Des: 2025-210 Owner: SPXS Country: US Constellation: starlink operational
LEOCIRCULAR

Aktuelle Ansicht

3D-Globus wird geladen...

Über Starlink 34868

Beschreibung wird geladen...

Nächste Überflüge

Passes for default location (London). Set your location on the main map for personalized predictions.

Höhenverlauf

Loading altitude history...

Zweizeiliger Elementsatz

1 65648U 25210AC 26150.78181186 .00028032 00000-0 83765-3 0 9990
2 65648 53.1607 284.7797 0001167 54.5901 305.5210 15.34401592 40314
Epoch: 30. Mai 2026 • Age: 16 hours

Aktueller Status

Höhe 462.6 km
Geschwindigkeit 7.64 km/s
Subsatellitenpunkt 3.88°N, 120.56°W
Startdatum 18. Sept. 2025
Alter 0.6 years
Typ internet

Technische Details

Klassifizierung Payload
Masse 575.00 kg
Trockenmasse 530.00 kg
Gesamtmasse 575.00 kg
Länge 0.30 m
Durchmesser 4.10 m
Spannweite 29.00 m
Form Box + pan
Hersteller SPXS
Bus-Typ Starlink V2MO
Phasenstatus In Orbit
Besitzer/Staat SPXS/US

Most Searched